{"data":{"norad_id":62205,"intl_designator":"2024-229P","name":"STARLINK-32660","alt_names":[],"object_type":"PAYLOAD","status":"ACTIVE","operator":null,"country":"US","launch_date":"2024-12-04","launch_site_code":"AFETR","launch_vehicle":null,"mission":null,"orbit_class":"UNKNOWN","rcs_meters":null,"size_class":null,"mass_kg":null,"dimensions":null,"purposes":["comms"],"wikipedia_slug":null,"has_3d_model":false,"image_url":null,"decayed_at":null,"tle_current":{"epoch":"2026-09-21T21:43:12.089856Z","epoch_age_seconds":56211,"freshness":"FRESH","line1":"1 62205U 24229P   26264.90500104  .00014539  00000+0  53673-3 0  9991","line2":"2 62205  43.0005 228.4049 0001352 270.7354  89.3342 15.27584458100736","mean_motion":15.27584458,"eccentricity":0.0001352,"inclination_deg":43.0005,"raan_deg":228.4049,"arg_perigee_deg":270.7354,"mean_anomaly_deg":89.3342,"bstar":0.00053673,"rev_number":10073,"period_min":94.266473611896,"perigee_km":482.10811666094,"apogee_km":483.96337777178,"semimajor_km":6861.1727472164,"source":"CELESTRAK","updated_at":"2026-09-22T09:00:49.541527Z"}}}